Theta_e
320 320 321 321 321 322 322 323 324 324 324 324 324 324 324 324 325 325 325 325 326 326 326 325 326 326 326 325 325 318 315 298 299 298 297 297 316 323 324 327 327 331 320 298 300 301 297 298 299 299 300 298 293 295 294 297 293 291 288 287 284 282 286 287 286 285 289 288 288 288 287 286 284 286 287 287 284 282 284 284 283 283 285 287 287 286 287 287
320 320 320 321 321 321 323 323 324 323 324 324 323 324 324 325 325 326 323 323 324 324 325 325 325 324 325 324 323 320 300 299 298 297 296 310 321 323 325 325 327 326 313 297 297 297 298 296 298 300 296 293 294 294 295 292 293 287 282 285 285 279 286 287 287 288 288 285 286 285 284 286 285 285 287 282 281 280 281 283 281 281 283 283 285 285 286 287
320 320 319 320 320 321 322 323 323 324 322 324 324 323 324 326 322 322 321 322 323 324 326 326 325 323 322 324 319 314 300 298 298 294 298 318 320 322 324 324 326 323 297 298 296 298 297 295 298 299 295 294 293 291 293 290 293 287 288 283 281 283 285 287 289 287 288 287 284 283 283 282 282 284 285 281 280 280 280 281 280 280 281 282 283 284 285 287
320 319 319 319 320 321 321 322 323 323 323 324 324 324 325 324 322 322 321 320 321 322 324 325 325 325 323 320 322 298 296 295 292 293 300 319 320 321 322 323 325 306 298 299 297 299 298 299 297 298 293 292 291 291 290 290 290 286 286 279 283 286 286 285 288 287 286 286 283 282 283 282 282 282 282 281 280 280 280 281 281 281 282 283 282 283 284 286
319 319 319 319 319 320 321 321 322 323 324 323 323 325 325 322 322 322 323 320 321 321 323 323 319 317 316 317 313 298 295 289 289 295 302 318 320 321 320 321 322 300 298 296 299 297 299 297 296 291 291 286 288 294 287 290 288 286 282 283 285 286 284 284 284 284 284 284 284 282 284 282 283 281 280 282 278 279 280 284 282 283 282 283 283 284 284 285
319 319 318 319 319 320 321 321 322 322 323 325 325 324 324 322 322 322 323 323 321 319 319 320 321 318 315 313 300 298 293 280 292 297 317 317 318 318 319 317 319 303 300 299 296 296 298 295 295 286 286 286 285 286 286 287 289 286 284 283 285 285 285 285 285 284 285 282 282 282 283 281 279 280 278 279 280 283 283 282 282 282 283 284 283 283 284 283
319 318 318 318 319 320 321 321 321 322 323 324 325 324 322 321 321 321 322 323 322 323 325 322 323 321 317 315 302 299 294 289 291 300 313 317 316 313 317 309 309 301 301 298 297 296 295 295 294 290 288 288 287 287 288 288 289 288 281 282 282 284 283 282 282 281 281 283 282 282 281 280 279 279 280 280 280 280 280 279 280 281 281 280 281 280 281 281
318 318 318 318 320 320 319 319 319 320 321 322 323 324 322 322 321 319 321 323 324 322 319 321 321 318 315 296 298 293 293 290 297 300 311 313 304 304 306 299 297 298 297 295 297 296 297 294 293 291 289 289 287 289 291 289 288 284 283 283 283 282 281 282 282 281 282 281 281 281 280 280 280 279 280 281 281 280 281 281 280 279 280 279 279 280 279 280
318 318 318 319 320 319 319 319 318 318 320 321 322 323 322 322 322 321 319 319 320 322 322 320 319 317 314 297 292 294 289 294 295 298 300 298 298 298 299 297 296 298 293 292 291 292 291 287 288 288 289 290 289 288 285 288 286 282 282 281 282 281 282 281 283 281 281 282 281 282 280 280 281 280 281 281 280 280 281 279 278 279 281 278 279 280 279 281
318 318 318 319 319 317 318 318 318 318 319 320 321 322 322 321 321 321 320 318 317 318 319 318 320 314 302 295 295 291 293 295 297 299 299 298 298 299 298 296 296 298 296 294 297 295 292 291 295 294 292 288 287 283 288 289 285 284 283 283 283 282 283 282 281 280 281 281 279 280 280 281 281 281 278 281 280 280 281 279 277 278 280 279 279 279 280 282
318 318 318 319 319 319 320 320 319 319 319 320 320 321 321 321 321 322 321 321 320 319 318 315 314 309 298 296 293 288 296 299 298 300 298 298 298 297 294 294 294 297 296 294 292 293 296 295 294 294 291 286 287 285 286 283 286 284 284 284 283 283 283 281 282 282 281 283 279 280 280 279 279 281 277 279 282 280 280 279 278 277 278 278 278 279 281 283
318 318 318 318 318 317 319 319 320 320 319 320 320 321 321 320 321 322 321 322 320 320 320 316 311 301 299 297 293 292 296 298 297 299 299 299 297 295 295 294 294 293 294 291 290 290 291 291 290 287 288 289 285 287 284 285 285 283 284 282 280 280 282 281 283 282 281 283 281 280 281 280 277 280 281 279 279 278 279 278 277 277 277 278 280 281 282 282
317 318 317 318 317 318 319 321 321 319 319 319 320 320 321 321 321 321 321 320 323 321 317 316 308 299 299 293 292 297 295 295 297 299 300 300 297 296 296 296 296 295 295 293 290 292 291 292 296 291 285 286 283 282 287 285 283 284 281 280 278 274 277 281 281 281 283 282 280 281 276 272 276 277 277 279 279 279 279 277 278 277 277 279 280 281 281 282
317 317 317 317 317 318 319 321 321 319 318 319 319 319 319 320 321 320 319 320 321 319 317 316 302 300 297 287 297 298 298 300 299 301 297 300 298 298 299 297 297 296 296 295 293 294 294 295 293 289 287 287 285 289 287 281 280 278 279 277 274 273 276 279 280 280 283 281 280 281 276 274 274 276 277 278 279 280 279 279 278 277 278 278 280 280 281 282
317 317 317 317 318 318 318 320 319 319 317 317 317 317 317 318 320 319 318 316 319 319 317 312 297 292 292 290 295 297 313 299 299 294 296 298 295 295 297 297 296 294 295 296 294 295 295 295 294 288 286 285 288 283 278 276 276 277 277 274 274 274 278 278 281 277 281 281 279 280 275 273 276 276 277 278 278 279 279 278 277 277 278 278 278 280 280 282
316 317 316 316 317 317 317 319 319 319 318 316 315 315 316 318 318 318 318 316 315 317 301 297 297 297 293 289 296 305 294 295 296 296 295 297 295 295 295 294 295 296 295 295 295 295 293 294 288 284 284 283 282 278 277 276 276 276 274 275 275 274 276 276 281 277 279 280 279 280 277 276 280 279 278 276 278 279 279 278 277 277 278 279 280 280 280 281
316 316 316 316 316 317 317 317 317 318 318 318 318 314 315 316 317 319 317 311 303 304 303 296 295 296 290 293 299 293 290 293 295 295 295 295 294 293 293 293 292 292 292 295 295 294 291 289 285 285 282 279 277 276 276 275 274 276 275 275 276 275 275 275 277 280 278 279 281 276 279 275 278 277 276 277 277 278 278 278 278 278 278 279 279 280 280 280
315 315 315 315 316 317 317 317 317 317 317 318 317 317 309 314 314 311 308 304 300 298 297 299 292 294 291 296 290 292 293 290 295 294 293 296 294 293 292 292 288 292 290 291 292 290 287 285 285 281 280 280 279 274 274 275 277 277 275 275 276 275 275 276 275 279 279 276 278 275 277 276 277 277 277 276 277 279 277 278 278 278 278 279 279 280 280 280
314 314 314 315 315 317 317 317 317 317 318 319 318 317 314 313 300 303 300 299 297 293 289 292 289 284 283 290 291 291 294 295 294 295 296 296 295 292 292 290 289 289 286 286 287 286 285 284 283 281 278 278 277 276 277 278 276 276 274 275 274 275 276 277 278 278 278 277 278 275 277 277 277 277 277 277 276 277 278 277 278 278 278 278 278 279 280 281
313 313 314 314 315 317 317 317 316 317 317 307 299 300 297 293 294 292 295 297 290 290 290 291 290 290 291 290 292 295 296 296 293 294 296 296 294 293 290 289 289 289 282 282 282 284 282 280 277 276 277 278 277 276 277 277 276 276 275 275 274 275 276 277 276 278 277 278 276 276 274 274 276 277 278 277 277 277 277 279 279 279 279 279 279 280 280 280
313 313 313 314 315 316 317 315 315 316 316 297 298 299 296 288 286 284 286 290 288 288 291 291 292 293 291 292 291 294 292 293 294 294 296 297 292 292 289 286 286 285 281 279 282 285 284 282 278 278 278 278 277 276 276 277 276 277 276 276 275 274 277 279 280 277 278 279 277 275 275 277 278 278 278 276 277 280 280 279 279 280 279 279 279 280 281 282
312 312 313 313 315 315 317 315 314 312 309 298 297 295 293 290 293 293 292 288 291 290 289 290 290 291 292 291 293 291 290 290 295 294 297 298 291 288 287 285 283 282 280 279 278 281 281 279 280 278 278 278 277 277 277 277 277 276 276 274 276 276 276 277 277 277 278 279 276 274 277 278 279 279 279 277 278 278 278 279 280 279 280 281 280 279 280 281
312 312 313 313 314 315 316 316 311 308 295 299 296 294 294 295 293 292 292 293 289 291 291 290 292 289 292 293 292 291 288 287 286 291 293 294 288 287 282 283 282 280 283 280 280 279 280 278 279 278 277 278 278 276 277 278 277 276 276 277 276 276 277 276 277 277 278 278 278 275 276 279 277 276 277 277 277 277 277 278 278 278 280 281 281 280 280 280
311 312 312 313 314 314 317 314 309 300 295 294 293 292 293 291 291 295 290 286 287 289 292 291 290 289 290 292 293 292 289 287 285 288 295 290 286 285 284 282 281 280 279 281 281 281 278 280 279 276 277 278 277 277 277 276 276 275 275 274 275 277 277 276 278 276 276 279 276 276 275 273 272 276 278 278 276 278 278 277 277 277 279 279 279 280 280 281
311 312 312 313 313 316 312 311 298 294 292 292 291 293 292 291 292 291 290 285 287 289 291 291 288 292 293 295 292 292 287 287 288 289 290 292 288 285 283 283 281 279 279 280 281 280 278 280 279 277 277 277 278 278 277 275 276 274 276 278 278 276 278 276 275 276 272 274 276 275 271 271 273 274 275 277 276 278 276 277 279 279 278 277 277 279 280 281
311 311 312 313 314 315 313 300 296 293 292 293 293 292 290 290 291 293 288 277 277 287 290 288 295 292 294 292 291 285 289 285 289 291 294 292 293 286 283 283 281 280 279 279 280 278 279 279 278 277 277 278 278 277 277 276 274 274 277 277 276 276 276 276 275 278 272 274 276 274 272 267 273 273 274 274 274 277 277 276 277 277 277 277 277 278 278 279
311 310 312 313 311 311 300 294 292 291 294 292 291 289 290 291 289 295 289 274 277 286 286 293 294 292 297 290 289 290 282 285 291 289 290 292 290 290 285 281 281 281 279 279 278 278 280 279 278 277 277 277 276 277 277 276 275 277 276 275 277 278 278 277 275 275 274 274 278 274 271 269 271 274 275 274 274 276 277 278 278 277 276 276 277 278 278 279
310 310 311 313 309 307 297 295 295 295 290 292 290 289 290 292 293 289 281 272 274 288 286 288 293 294 293 291 290 287 287 286 285 288 289 290 289 288 285 281 281 282 281 279 276 280 279 279 278 278 276 276 276 278 279 277 275 276 277 277 278 278 277 275 276 274 275 275 273 272 275 271 267 273 274 275 278 275 276 277 277 277 276 276 278 278 279 279
310 309 310 311 309 305 295 292 291 293 292 291 290 290 290 289 288 287 278 273 285 283 296 289 297 293 287 290 288 283 285 286 284 287 288 289 292 286 283 281 279 281 281 280 277 278 281 280 281 277 275 277 278 277 277 278 277 279 277 278 277 276 276 276 274 276 272 272 267 273 273 269 271 272 273 274 277 276 276 276 276 276 276 277 278 279 279 279
310 308 309 309 301 295 290 289 292 292 288 289 291 292 291 290 289 284 278 273 284 280 288 288 289 286 283 284 284 285 286 283 283 284 286 284 288 289 286 283 282 282 282 283 280 279 280 283 283 280 279 280 277 278 277 277 279 278 279 280 277 274 273 273 272 272 268 264 267 273 272 272 269 273 274 278 278 275 274 276 276 276 276 277 277 278 280 280
310 307 307 306 293 292 286 288 290 291 289 291 292 292 292 287 276 270 269 277 285 284 286 283 283 284 281 283 283 284 282 281 284 282 283 284 284 283 284 285 283 280 277 279 279 279 281 280 280 280 283 279 279 279 278 278 278 279 277 278 275 276 272 273 263 264 265 260 264 271 272 270 267 268 275 275 275 275 275 279 280 279 276 277 277 278 278 278
310 306 306 298 295 290 291 290 291 292 291 291 291 288 287 286 284 275 277 286 280 282 281 281 282 280 280 280 279 281 281 280 281 280 278 278 278 279 278 278 277 277 273 271 276 279 279 280 280 280 283 280 277 279 277 276 277 276 274 274 271 265 265 267 258 270 263 266 274 269 270 270 270 274 276 275 276 275 275 276 276 275 275 275 277 277 278 278
308 307 305 300 295 289 291 291 289 292 293 292 289 286 282 274 275 273 273 274 279 280 282 283 281 280 280 279 279 279 281 281 281 280 280 278 277 277 279 279 278 279 276 277 276 273 279 278 279 279 280 281 280 278 276 278 276 275 275 268 265 262 255 260 253 257 262 268 272 271 270 272 273 275 276 276 275 276 276 276 275 276 277 277 279 279 279 279
305 301 295 296 296 293 293 292 289 292 293 292 288 288 282 278 275 285 274 273 279 279 282 280 281 281 279 280 280 279 281 281 280 280 279 276 275 274 277 278 279 277 270 273 277 270 272 274 279 278 278 279 278 277 276 277 276 276 275 274 272 262 268 264 259 267 267 268 269 269 268 265 271 278 277 275 275 275 275 275 275 276 276 277 277 278 278 278
303 295 291 289 289 290 291 289 291 293 288 289 285 281 277 275 273 275 276 275 278 280 284 281 280 279 279 276 279 281 282 280 280 278 278 275 273 274 276 277 278 279 277 275 273 271 278 273 278 279 279 278 278 278 278 275 274 275 275 273 270 272 268 271 260 263 260 262 266 266 269 270 276 277 278 275 275 276 276 275 277 277 276 277 277 279 279 279
303 293 289 288 292 291 289 291 290 292 291 288 284 280 276 273 278 276 278 281 282 283 281 281 278 278 277 277 278 278 284 282 281 277 275 275 277 277 278 277 278 279 277 276 275 273 273 277 278 278 279 278 279 279 279 279 274 277 275 270 274 275 270 263 262 261 262 260 263 262 272 274 275 277 277 274 278 279 275 276 276 277 276 276 278 280 280 279
291 290 295 290 291 290 289 288 290 288 290 286 284 277 274 274 278 275 283 282 283 281 280 279 278 279 276 275 275 275 280 282 281 277 275 277 275 277 278 278 279 278 279 276 274 273 275 274 278 278 279 279 277 277 278 277 277 275 270 276 275 271 268 270 269 260 255 261 264 266 268 270 272 273 274 277 277 276 275 276 275 276 276 277 280 280 281 281
292 290 291 290 293 290 289 288 292 289 287 286 279 285 274 277 280 282 280 281 282 280 276 275 279 280 276 277 278 277 279 282 279 273 274 276 275 281 277 277 279 279 278 279 276 275 276 275 276 278 277 279 278 279 278 279 279 278 277 278 277 267 273 265 265 263 264 261 262 267 266 268 271 274 274 279 279 278 276 275 276 278 278 279 279 280 280 280
285 286 289 291 291 289 290 288 290 286 285 284 273 283 278 277 281 280 281 282 281 280 282 277 275 278 278 278 279 277 276 281 277 273 275 277 276 280 279 278 279 278 278 278 275 276 274 273 275 278 278 277 278 277 272 275 279 272 276 276 276 272 268 267 267 264 266 262 264 266 264 271 272 272 274 280 275 275 274 277 277 276 277 278 278 279 280 281
291 289 284 291 291 288 290 291 289 286 285 282 275 274 278 279 282 281 279 282 281 281 279 279 275 275 277 277 278 279 276 277 277 277 278 276 279 280 280 279 277 279 278 278 277 277 274 274 271 276 275 277 275 272 274 273 275 276 274 270 272 270 272 273 267 268 269 258 259 259 267 268 273 275 275 275 274 275 276 277 277 278 278 277 278 279 280 280
283 285 287 291 292 289 291 291 284 277 275 272 272 274 276 279 281 281 280 278 279 280 282 278 278 279 276 276 279 277 276 275 275 277 277 278 279 277 278 279 278 279 279 279 276 276 271 272 273 268 274 274 273 275 274 274 274 273 276 274 273 269 270 269 268 266 260 266 261 258 270 273 278 277 277 275 274 275 275 276 277 278 278 278 279 279 278 280
288 281 287 290 290 290 289 286 276 271 275 274 277 278 282 288 279 280 280 279 279 280 280 279 279 276 274 277 277 276 275 276 276 275 276 278 278 278 278 275 277 277 278 277 277 278 276 267 272 271 271 274 275 275 274 273 272 272 274 276 272 269 268 265 266 266 265 266 264 263 263 271 277 276 275 276 274 274 274 275 276 278 278 279 279 279 279 279
280 286 288 291 290 292 287 277 279 278 275 276 280 280 279 280 278 280 281 281 280 280 277 279 282 281 278 279 275 273 275 277 276 279 276 276 276 277 275 274 276 278 277 275 279 276 282 270 271 270 266 270 272 270 269 271 273 270 268 266 272 273 272 270 269 268 267 264 265 262 262 273 277 276 276 275 275 275 275 275 276 278 279 279 279 280 280 280
281 282 290 291 289 291 286 280 276 274 273 277 278 277 279 280 280 279 279 279 277 280 280 277 280 281 280 276 276 277 277 278 277 277 277 274 277 276 273 274 276 277 278 279 276 277 275 273 274 268 264 265 268 271 272 271 269 270 271 271 272 271 268 263 263 261 269 265 267 268 265 270 277 278 276 277 275 276 277 277 276 278 280 280 280 280 280 280
284 285 283 285 291 289 285 279 280 274 277 275 275 277 277 278 280 280 280 280 280 278 279 280 280 280 277 277 274 275 273 278 276 275 276 275 277 277 276 273 276 277 279 281 286 280 274 272 272 272 270 268 268 267 270 271 270 272 272 272 272 272 269 270 272 264 267 264 266 264 266 277 277 276 278 277 276 278 278 278 278 277 279 280 280 280 280 280
284 285 281 282 286 284 281 280 280 279 276 272 276 277 277 277 281 278 279 280 280 279 279 280 278 278 277 278 276 274 276 275 277 275 275 274 276 277 276 273 273 276 279 284 281 275 268 269 271 269 270 273 273 272 272 277 272 272 273 271 273 272 271 270 267 265 270 263 268 272 273 278 280 281 280 279 278 278 280 281 281 281 279 279 278 279 279 280
279 280 280 280 279 284 277 278 277 279 281 278 278 276 277 277 278 279 280 280 281 280 279 280 278 281 279 278 275 276 276 277 275 274 274 273 274 276 273 275 274 281 286 285 281 271 268 271 270 270 272 276 274 273 273 277 274 272 274 273 272 272 271 273 272 272 271 267 273 272 273 271 277 279 280 281 282 281 280 280 280 280 280 280 280 279 282 280
286 279 277 280 283 282 279 282 276 278 278 280 277 277 276 276 278 278 280 280 280 278 280 279 279 280 279 281 278 278 277 275 274 276 275 274 275 276 275 276 277 279 280 275 276 274 269 272 271 271 270 272 272 273 273 272 273 272 272 272 272 273 272 273 273 274 274 272 276 274 271 273 279 281 282 282 282 281 281 282 281 279 279 279 278 279 279 280
281 276 278 280 280 274 277 279 277 279 279 275 279 277 276 277 278 277 278 279 278 280 280 279 279 279 277 279 280 278 277 278 277 275 274 273 273 273 274 274 276 274 272 273 271 267 273 267 270 271 270 274 273 270 271 273 270 272 273 274 274 272 273 275 275 273 274 277 279 278 277 277 279 280 282 283 283 281 281 279 279 279 279 279 278 278 279 279
281 283 279 278 277 273 276 275 276 278 279 281 280 278 278 278 279 278 279 278 278 279 281 281 280 278 277 277 277 279 278 282 283 280 277 275 273 275 272 275 275 275 272 272 272 273 275 270 277 267 269 269 268 271 268 270 269 268 272 273 273 273 273 274 274 273 273 274 276 276 275 276 281 281 281 282 279 278 278 279 280 279 278 278 278 279 279 280
283 284 284 284 278 276 278 275 278 276 278 280 279 278 279 278 278 278 279 280 280 279 279 281 279 278 278 277 279 280 280 280 281 281 280 278 280 278 279 277 278 272 273 271 270 269 274 270 267 265 272 270 268 266 269 266 267 269 272 273 272 270 268 271 273 274 274 275 273 272 271 275 280 278 278 278 278 278 279 279 279 280 279 278 278 279 280 280
281 282 279 279 277 281 280 276 277 279 280 278 279 279 281 281 279 279 280 279 277 279 279 279 279 279 278 279 279 280 282 279 281 279 279 278 278 277 277 277 277 277 274 272 269 272 268 268 271 266 271 266 268 266 268 267 270 274 273 273 275 275 273 273 274 274 277 276 273 270 276 279 278 279 279 280 279 279 278 279 279 280 279 279 279 280 280 280
Wind_Speed
14 13 12 12 11 11 10 10 10 9 9 8 8 8 7 6 6 7 7 7 6 5 5 5 4 4 4 5 6 6 6 9 19 21 24 7 11 21 20 20 18 16 6 2 3 9 8 11 10 4 13 10 7 7 4 9 4 7 7 6 8 3 6 4 4 4 3 6 2 2 2 6 4 1 0 1 7 3 2 4 4 2 1 2 2 2 3 3
13 12 12 11 11 11 11 10 9 9 8 8 8 7 7 7 7 7 10 9 8 6 4 2 3 4 5 4 4 5 5 12 21 23 11 10 25 25 24 22 20 16 2 7 7 5 13 8 12 17 10 8 5 5 3 3 5 8 5 5 9 1 1 1 3 4 5 3 4 3 1 1 2 1 1 3 3 5 5 3 4 2 3 3 2 3 3 4
12 12 11 11 11 10 10 9 9 8 9 9 9 10 10 10 13 13 12 13 10 8 8 8 7 5 2 3 2 4 5 12 24 17 15 21 27 26 24 21 18 14 5 6 2 9 9 4 4 20 8 9 11 4 6 5 4 7 7 8 4 1 3 4 3 3 3 10 6 5 2 5 2 0 1 3 1 4 5 1 3 2 1 3 4 4 4 4
12 11 11 10 10 10 9 9 8 8 7 8 7 8 8 9 11 11 11 14 12 10 10 9 8 6 4 3 1 2 4 8 13 7 11 23 27 25 22 19 15 10 4 12 5 12 6 12 14 16 6 14 4 4 13 8 5 4 8 3 4 2 5 5 6 8 6 4 6 4 1 4 3 1 1 5 5 4 1 3 1 0 0 2 3 5 4 4
12 11 11 11 10 10 9 9 8 7 7 6 6 6 6 7 8 9 9 10 14 10 10 9 12 13 11 5 2 1 4 9 4 8 13 25 25 23 19 16 11 5 7 5 9 5 13 10 7 9 9 5 4 12 7 8 4 7 5 4 4 4 10 1 4 6 5 4 8 3 5 2 1 2 2 1 5 1 1 0 4 3 2 2 3 4 3 3
12 11 11 10 10 9 8 8 7 7 7 6 6 6 6 7 7 5 6 6 8 13 11 12 10 10 17 20 10 7 6 5 5 11 17 24 24 20 16 12 9 3 5 12 6 6 16 11 14 7 6 7 8 12 2 4 2 12 4 5 7 4 8 0 2 3 4 4 4 2 1 1 2 1 0 2 3 0 2 2 2 4 4 3 2 2 4 5
12 11 10 10 9 7 7 7 7 7 7 6 6 6 8 10 11 10 6 4 1 4 4 3 7 8 6 6 17 24 17 3 3 12 18 22 22 17 11 9 8 8 13 11 11 12 12 16 21 7 9 13 11 13 8 13 14 13 5 3 8 5 7 3 3 5 5 8 3 1 3 4 1 5 1 1 1 3 4 2 4 4 4 3 4 2 3 4
12 11 10 9 8 8 9 9 10 10 10 9 7 7 8 8 9 12 10 7 2 2 2 4 5 7 6 3 10 12 16 6 13 12 18 22 18 15 8 7 10 8 15 9 9 12 14 13 18 6 11 11 2 12 7 20 12 7 9 2 1 6 3 5 6 6 6 6 2 5 5 1 0 1 0 0 2 3 5 4 3 3 2 2 1 3 4 3
12 11 10 9 8 9 9 10 11 11 10 10 10 8 8 8 8 8 11 12 10 6 4 3 4 1 4 4 3 20 8 6 7 11 14 16 16 10 17 8 9 15 5 6 6 4 8 1 4 1 9 15 1 9 4 6 8 4 4 3 5 5 4 4 8 6 5 2 4 6 4 1 0 4 1 1 3 3 5 4 5 4 4 3 2 3 3 2
12 11 10 9 8 10 11 11 11 10 10 11 10 10 9 9 8 9 10 13 17 16 12 9 4 7 11 4 12 18 3 6 7 12 13 14 12 18 18 11 7 12 13 7 13 7 6 5 20 12 17 15 3 4 7 10 6 4 8 8 9 2 4 6 5 3 4 3 2 3 0 1 4 2 2 2 2 5 6 5 5 4 3 4 3 3 3 1
12 12 10 9 10 10 9 9 11 11 12 11 10 9 9 9 8 8 8 9 10 10 14 18 18 19 8 6 19 10 3 8 6 9 13 12 16 17 11 9 5 15 21 15 13 8 14 19 13 8 7 4 8 11 13 4 11 9 11 11 10 7 7 2 5 5 3 2 4 4 0 3 4 1 2 1 1 4 4 6 6 4 3 4 4 3 2 2
12 11 11 10 10 9 8 9 11 12 13 10 9 8 8 9 11 9 7 7 9 9 6 4 8 5 13 20 14 5 3 3 5 6 7 11 10 7 8 9 10 6 12 10 7 5 2 4 4 3 9 5 14 12 9 4 5 4 4 11 4 6 5 5 1 3 2 0 0 1 0 1 1 1 1 2 4 4 4 4 4 4 4 3 2 2 2 4
11 10 9 8 8 7 7 8 10 13 12 10 8 8 8 9 10 9 7 8 7 8 8 6 3 2 9 16 3 5 2 4 4 8 16 11 1 4 7 8 13 12 10 15 6 4 5 4 17 21 5 6 5 2 5 5 4 5 6 6 4 4 4 6 1 2 1 0 1 0 2 2 2 3 4 3 5 5 5 5 4 4 4 3 1 2 3 4
11 10 9 8 8 8 8 8 10 12 13 11 10 10 10 9 10 9 10 9 7 6 6 9 7 5 16 2 2 3 3 1 4 15 13 10 8 8 11 10 11 8 6 14 9 8 13 13 23 15 4 6 9 5 10 2 5 5 0 5 3 2 1 3 1 6 0 2 1 1 0 6 4 4 4 3 2 3 4 5 5 4 4 3 3 3 4 6
12 11 10 10 10 10 8 8 9 10 13 14 12 11 11 9 8 10 8 10 10 3 5 6 3 3 10 1 5 7 1 1 12 5 4 10 6 5 7 9 9 8 7 10 6 6 5 9 21 11 9 5 9 6 4 4 4 3 1 4 4 5 1 4 3 4 1 2 4 1 1 4 5 5 2 3 3 3 3 5 5 4 4 4 4 4 4 6
12 12 11 11 10 9 10 8 8 8 8 12 17 15 12 10 9 9 12 9 9 6 1 6 9 11 12 4 0 4 6 7 7 5 2 5 6 2 3 4 2 6 8 5 4 3 7 13 15 4 4 4 10 7 5 5 4 5 6 1 2 3 1 2 1 2 1 1 3 3 4 5 2 2 4 3 3 2 3 6 6 5 5 5 5 5 4 6
13 12 12 10 9 7 7 9 6 7 6 6 6 16 20 13 9 10 10 10 7 4 8 3 1 1 8 3 1 5 3 2 3 3 7 3 5 2 2 4 4 5 4 6 10 8 10 11 2 5 6 7 0 4 8 7 4 4 4 4 0 1 3 1 5 2 5 4 2 5 0 4 6 7 7 4 4 3 3 5 6 5 5 5 5 5 6 5
13 13 11 11 9 6 6 6 8 7 5 4 2 5 7 16 22 17 11 7 3 6 5 6 2 6 5 7 3 3 1 5 7 7 3 1 5 7 7 5 3 3 7 4 9 11 6 6 7 4 3 8 9 5 3 2 1 3 3 4 2 0 0 2 2 4 6 3 2 4 0 6 7 7 5 3 3 1 4 4 5 6 6 6 5 5 6 6
14 13 11 10 8 6 6 5 6 5 3 1 2 2 3 3 4 13 12 8 8 8 7 10 9 4 4 2 4 5 3 4 2 5 9 8 4 3 3 2 4 4 1 6 4 7 6 6 6 10 9 9 8 6 5 3 5 6 6 4 3 3 0 1 2 2 3 4 3 3 2 7 10 8 7 4 3 2 5 4 5 5 5 5 5 6 5 6
15 14 13 11 9 6 6 7 6 4 1 5 1 1 3 6 8 5 8 15 10 5 4 1 1 3 4 5 5 6 3 4 3 7 3 1 4 5 6 4 4 11 7 4 5 5 0 12 9 3 7 8 7 3 2 0 6 8 6 6 2 1 1 2 2 2 1 0 1 2 3 4 8 8 8 6 5 3 4 5 6 5 6 6 5 6 7 7
15 15 13 12 9 7 7 7 5 3 7 5 4 3 0 5 6 2 2 6 2 2 4 3 5 6 4 1 3 6 1 1 3 10 7 3 2 2 6 5 7 9 6 2 2 3 4 13 8 4 5 5 7 2 1 7 6 7 8 6 2 1 0 0 0 3 4 1 1 0 4 7 9 8 8 4 2 6 6 6 6 7 5 5 6 8 8 8
16 15 13 11 9 8 6 7 5 7 6 5 5 3 1 2 0 1 6 7 4 3 6 2 1 5 2 2 1 2 2 4 14 16 8 7 6 5 6 9 7 6 5 3 3 8 12 8 4 5 4 2 2 3 2 5 6 5 6 3 4 1 3 6 2 3 3 1 4 2 5 9 10 8 6 4 5 5 4 4 4 3 6 6 6 6 7 6
15 14 12 11 9 7 4 3 8 6 4 6 4 6 5 0 2 2 3 10 5 1 4 4 7 5 4 2 0 4 9 9 2 10 11 7 4 8 1 7 9 4 7 6 8 3 9 4 4 2 2 2 3 4 4 7 8 6 2 2 1 1 1 2 1 4 5 3 2 2 6 11 5 4 7 6 5 4 3 4 6 5 6 7 7 5 5 6
14 14 12 11 9 5 3 1 2 8 6 5 6 3 1 2 2 0 3 3 5 2 2 0 3 2 5 3 4 7 6 2 3 14 10 4 4 1 6 5 8 7 8 9 13 14 6 1 0 3 1 1 5 7 10 5 3 2 3 2 1 0 0 1 2 4 2 0 1 4 4 5 4 2 2 1 1 3 3 4 4 3 5 6 6 6 5 8
14 13 12 10 9 6 1 4 8 1 1 4 2 1 0 1 2 2 4 1 5 2 2 1 2 2 1 1 3 1 0 2 3 3 3 3 3 3 2 1 4 4 1 0 11 13 6 1 1 2 3 4 5 7 7 3 3 4 0 0 0 1 0 2 4 3 4 2 4 4 7 3 4 5 7 6 6 4 2 4 6 5 4 3 4 6 4 5
14 13 11 10 8 4 2 6 0 2 3 2 1 0 0 0 1 0 7 5 3 4 2 5 1 3 2 4 5 0 1 5 2 2 1 1 3 3 1 5 2 4 2 3 9 5 2 2 3 2 6 7 8 5 2 0 2 2 0 0 1 2 1 1 3 1 2 1 3 2 4 5 5 4 2 4 5 6 6 3 7 6 5 3 3 3 4 4
15 14 12 10 9 2 4 1 1 3 2 0 0 1 1 1 0 0 1 4 5 2 3 2 2 1 2 2 0 0 2 1 2 3 4 5 2 1 6 3 3 3 2 1 3 3 2 4 5 4 7 6 5 6 2 2 1 0 1 3 2 0 1 0 2 2 2 1 2 5 3 1 7 8 2 3 2 5 6 7 6 5 4 3 3 3 4 4
14 15 12 9 11 3 1 6 3 1 1 0 1 1 0 1 2 1 4 3 1 3 2 4 1 2 4 4 7 6 2 3 2 2 4 6 0 5 11 0 3 2 1 3 7 1 3 3 4 5 5 6 3 1 1 0 1 1 1 1 0 0 2 2 0 1 0 1 3 3 1 1 4 7 3 2 2 3 6 6 6 5 5 4 4 5 5 5
14 14 11 5 6 11 8 4 5 2 0 0 1 0 1 1 3 5 4 2 1 2 2 1 2 1 8 4 8 3 1 5 3 2 7 1 8 2 8 1 5 6 4 2 8 2 1 1 1 3 3 3 1 0 2 3 0 1 1 2 2 2 3 1 1 0 1 2 3 1 1 0 7 6 5 1 1 5 7 5 5 5 5 4 5 6 6 5
14 15 12 3 2 4 4 4 4 1 1 1 0 1 1 1 3 1 2 2 0 0 1 3 3 6 3 2 4 9 9 5 1 6 5 3 7 9 4 2 2 5 8 9 10 2 0 3 4 3 1 0 3 1 1 1 0 2 1 1 1 3 3 2 5 2 2 1 4 2 1 1 3 5 4 1 1 3 2 2 4 5 5 6 7 7 7 6
13 15 13 6 4 1 1 4 0 1 1 1 0 1 1 7 3 5 1 1 1 1 1 5 1 5 6 5 3 5 3 4 8 5 4 8 9 7 4 2 4 5 6 5 5 3 1 1 1 0 2 2 2 1 2 0 0 1 0 0 3 3 5 1 3 4 2 4 2 2 0 1 1 4 5 7 2 4 5 4 3 2 4 5 4 5 5 5
9 13 15 10 1 1 2 5 0 1 1 1 1 2 3 1 6 3 2 4 1 2 3 2 1 1 3 1 4 6 4 4 4 6 5 3 5 8 8 4 4 2 3 2 1 1 3 2 1 4 1 3 1 2 1 2 3 2 1 4 3 5 5 3 4 1 1 2 0 0 0 1 6 10 4 2 6 5 6 5 5 4 4 4 5 6 5 4
8 7 12 9 2 4 2 1 1 1 1 1 3 4 2 4 1 2 1 3 0 1 0 1 2 3 0 2 4 3 2 3 3 3 1 1 5 3 1 3 0 0 1 1 1 2 0 1 3 3 1 1 0 2 1 0 4 3 2 1 3 3 4 1 4 2 4 3 2 0 1 2 5 7 6 7 4 6 5 7 5 4 5 6 6 6 5 6
7 6 8 3 8 3 1 1 1 1 0 2 1 3 7 4 1 1 1 0 1 1 2 0 2 0 5 4 1 2 5 1 2 2 3 1 5 2 3 2 3 3 3 1 1 2 0 2 1 2 1 2 2 1 1 1 1 1 2 1 2 4 0 2 1 2 2 6 5 4 1 5 1 1 1 6 3 3 4 5 4 5 7 7 7 7 8 8
6 7 4 1 3 3 2 1 1 1 2 4 10 5 4 1 1 3 1 1 1 1 0 0 1 2 3 3 3 1 1 0 2 1 7 3 2 1 3 5 5 2 0 1 1 2 0 3 1 1 2 1 1 1 1 2 3 0 2 2 5 0 3 1 2 1 2 4 7 1 4 3 3 0 3 1 4 4 3 4 3 6 3 4 6 7 6 6
2 1 2 3 3 3 4 2 0 1 1 7 8 8 2 3 1 2 1 1 1 2 1 1 4 3 1 1 1 3 3 0 3 2 4 4 1 1 1 0 1 2 1 1 1 1 1 1 0 4 2 2 0 0 1 0 0 1 1 1 1 2 6 5 1 1 1 3 6 1 8 5 8 2 1 4 1 2 2 3 3 5 5 4 5 6 6 6
1 3 5 3 3 4 4 3 1 2 9 8 8 2 1 1 1 1 2 2 0 4 2 2 2 1 0 0 1 3 1 2 1 2 1 1 1 1 0 1 2 0 0 2 0 1 1 1 1 1 0 1 1 0 0 1 0 2 2 1 3 2 3 2 1 3 5 2 6 3 2 9 6 1 2 2 2 4 3 5 4 6 5 5 6 6 6 6
1 2 1 2 3 5 2 3 1 8 7 9 6 4 0 2 0 0 0 0 0 2 3 2 0 3 1 1 1 1 3 1 4 3 0 0 1 1 1 0 0 2 0 1 1 0 1 1 0 0 1 2 2 1 2 0 0 1 2 3 1 1 1 4 2 3 4 4 6 8 2 7 4 5 2 1 0 2 3 4 3 5 5 5 5 7 7 5
2 2 2 1 3 3 4 2 7 5 5 11 1 3 1 0 0 0 2 1 0 1 1 1 1 0 2 1 1 0 1 1 0 1 1 0 1 1 0 1 0 1 0 2 1 1 1 0 1 0 1 1 0 1 1 1 2 1 1 3 1 3 1 1 0 3 4 4 7 8 5 5 5 4 4 1 3 3 2 1 4 6 6 6 5 5 5 6
0 1 1 1 4 3 4 5 7 10 9 7 3 1 1 1 0 1 1 0 1 0 0 2 0 3 1 1 1 2 1 2 1 0 0 0 1 0 1 2 0 0 2 0 2 0 0 0 0 1 2 1 1 1 1 2 2 1 2 2 1 2 1 3 1 1 1 2 2 1 9 7 6 5 4 3 3 4 6 4 5 6 6 6 6 5 6 5
1 3 1 2 6 3 3 13 14 9 8 0 2 4 0 1 1 1 2 3 0 1 1 2 5 1 3 2 1 0 1 1 0 1 1 0 1 1 0 0 1 1 1 1 3 1 1 1 1 2 1 2 2 0 0 1 1 2 2 0 4 3 0 1 5 2 2 1 2 1 9 8 10 1 5 2 2 2 4 3 4 6 7 7 7 6 4 6
1 1 1 2 5 2 4 11 5 0 5 5 2 1 1 2 2 1 1 0 1 1 2 4 1 3 1 1 1 1 2 1 0 1 1 1 0 1 0 2 1 0 0 1 0 1 1 2 2 3 2 0 0 0 0 0 1 1 2 0 4 2 4 4 0 2 1 0 3 2 0 11 6 2 3 5 3 3 3 3 7 7 7 7 7 7 6 4
3 0 1 2 4 4 12 7 1 6 5 1 2 2 2 1 2 1 0 1 0 1 2 2 0 1 1 0 1 1 1 0 2 1 1 0 0 0 3 2 2 1 1 1 1 0 3 1 2 4 3 3 1 1 0 1 1 0 1 1 1 1 2 4 2 3 3 0 0 1 2 11 6 1 3 4 4 4 5 5 8 8 7 7 7 8 7 7
1 0 2 0 2 3 3 1 2 1 1 1 2 1 2 1 1 1 0 1 0 0 1 1 0 1 2 1 2 1 1 1 1 1 0 1 1 1 3 4 1 0 0 0 1 0 0 1 2 3 4 3 1 1 0 0 1 1 1 1 1 3 4 2 5 1 0 7 6 6 5 7 1 2 1 0 2 4 5 5 6 8 7 6 7 6 5 6
3 0 1 6 8 5 1 2 10 7 1 4 1 4 1 2 1 0 1 1 0 1 1 1 0 1 2 1 3 2 2 1 0 1 1 1 1 1 2 2 4 1 1 3 2 1 1 0 1 1 1 3 4 4 2 2 2 2 0 1 2 5 7 2 1 1 1 1 4 2 7 11 5 2 3 3 4 5 6 6 5 7 8 9 8 7 7 6
1 1 4 5 9 8 7 1 5 8 8 3 4 0 1 2 1 2 2 1 0 0 1 3 0 2 2 0 2 1 1 2 1 1 1 1 1 1 2 5 3 2 2 2 3 1 2 0 0 3 4 6 6 1 1 2 1 1 1 3 4 1 0 3 5 4 5 3 6 11 8 12 18 16 7 8 5 6 10 11 10 8 5 5 6 7 6 6
1 4 1 1 5 9 3 4 3 3 6 3 3 3 1 1 1 1 1 0 0 0 1 1 1 2 1 2 1 1 0 0 1 2 0 2 0 1 2 0 2 1 2 2 2 2 2 0 1 1 6 7 3 6 2 2 5 3 2 4 4 6 5 7 8 7 6 5 10 5 4 4 13 10 11 13 13 10 6 7 9 7 5 5 5 6 7 6
1 1 2 1 1 1 3 3 3 5 3 3 1 1 4 3 0 2 1 0 0 1 1 0 1 1 5 3 4 2 0 0 0 1 1 0 1 0 1 1 1 4 3 0 1 1 2 1 0 1 5 6 6 5 2 1 3 3 5 4 6 8 7 10 9 5 8 5 13 3 5 3 14 13 15 15 11 9 10 11 8 6 7 6 5 6 7 7
4 2 2 1 1 0 0 0 3 6 7 3 2 2 2 4 5 3 3 1 1 0 0 1 3 5 4 1 1 1 2 1 1 0 3 2 3 2 0 1 0 3 1 0 1 0 2 1 2 1 4 8 6 1 1 6 2 2 6 8 6 11 14 14 10 5 11 13 13 12 12 17 17 17 17 16 12 7 8 4 6 6 6 4 4 5 6 7
1 2 0 5 7 4 0 1 2 3 4 1 3 3 5 6 5 1 1 3 2 1 1 1 2 2 4 3 1 1 4 2 1 1 4 5 0 2 3 4 2 2 1 1 0 0 0 1 4 1 2 5 2 1 1 1 2 4 6 7 8 8 7 10 5 5 4 12 16 16 14 18 18 8 9 10 5 3 4 6 7 7 4 4 5 6 7 7
1 0 4 8 4 1 1 2 1 2 1 1 2 1 2 4 4 5 1 0 0 4 5 3 7 5 1 2 1 0 1 2 1 2 7 4 0 4 2 1 6 4 1 1 0 2 0 1 2 1 3 5 2 1 2 1 4 8 9 8 8 6 8 7 9 8 8 13 2 1 4 10 11 2 4 5 5 4 5 6 6 6 2 4 5 6 6 7
2 0 1 4 4 1 0 0 1 2 0 2 1 3 1 7 3 5 2 1 1 1 2 4 6 7 1 3 3 2 1 3 1 1 6 3 6 6 4 3 4 8 6 3 0 2 1 4 1 1 2 5 3 0 7 8 6 6 7 10 16 11 4 0 4 3 12 4 3 5 11 6 4 0 4 6 4 6 5 6 8 7 5 4 5 7 7 7
Wind_Direction
14 14 12 12 10 8 4 2 6 4 6 8 2 357 350 340 339 356 359 350 339 337 338 334 351 14 23 20 14 359 9 44 40 34 33 3 331 327 330 328 325 321 7 66 44 55 32 33 32 342 56 51 319 38 326 40 353 46 51 100 74 129 104 186 153 180 141 128 179 73 80 119 118 310 229 8 15 40 9 53 318 342 355 218 254 278 266 289
12 12 10 10 8 5 2 1 360 3 360 3 5 354 357 355 354 359 11 7 3 4 5 12 66 64 50 37 14 355 63 35 40 27 22 337 347 344 339 335 335 342 32 38 81 86 77 33 58 51 59 46 323 44 12 11 31 61 88 50 112 179 46 135 163 142 111 133 131 94 39 106 90 112 317 76 342 3 37 16 20 4 341 345 320 313 343 347
13 10 8 8 7 3 360 359 359 358 6 1 360 6 10 358 10 8 12 13 21 38 45 74 76 79 56 8 34 18 55 23 35 12 334 347 346 340 339 335 337 354 55 117 32 88 99 99 66 78 33 83 7 55 30 359 51 19 96 87 32 217 72 39 81 95 80 132 115 106 34 75 293 78 330 106 112 25 54 31 4 23 307 304 295 328 325 350
12 10 6 6 5 4 2 358 356 1 359 3 352 356 2 12 9 5 10 25 41 51 65 67 60 38 1 320 326 74 69 49 43 328 326 343 341 338 336 337 344 3 62 59 84 89 113 88 51 77 87 67 26 47 50 331 73 341 63 77 146 194 91 349 82 96 90 95 119 105 133 74 356 350 78 166 58 15 313 227 149 35 237 276 288 298 329 337
9 7 5 4 4 6 2 359 355 355 4 4 352 355 359 30 23 8 360 22 48 64 68 81 76 60 40 327 161 106 65 56 325 339 325 337 338 335 333 340 348 24 61 144 81 76 71 55 88 51 61 72 353 62 20 8 56 92 74 58 97 99 79 355 68 72 98 67 98 93 84 142 287 39 49 143 119 143 202 277 216 226 234 242 306 316 330 327
7 5 6 4 4 3 4 359 359 359 359 349 349 359 14 34 46 35 356 355 32 70 91 80 46 33 48 45 69 80 88 64 318 321 330 333 333 335 333 348 0 28 80 46 77 35 67 3 65 24 40 57 13 76 326 28 312 97 359 35 43 32 113 254 61 27 81 96 78 75 143 75 68 114 172 107 132 214 228 242 245 234 240 251 275 295 330 343
6 5 4 5 5 1 0 12 14 9 4 356 360 9 21 27 31 36 35 23 230 244 298 332 17 11 338 21 64 68 76 151 305 299 334 332 331 336 336 16 19 68 65 72 54 71 77 83 74 71 94 82 44 84 65 67 41 82 96 62 33 46 67 23 71 50 52 83 63 169 75 75 31 75 297 52 274 254 281 267 261 262 279 274 302 15 313 281
6 6 7 7 3 15 31 33 31 26 23 22 20 21 26 27 32 43 48 51 33 291 333 347 11 13 9 25 48 48 52 359 321 322 332 335 337 344 337 35 11 57 58 63 88 90 84 70 94 115 45 88 207 95 100 77 37 67 86 47 108 50 21 56 72 67 74 53 67 62 65 351 36 120 35 310 298 303 308 317 306 304 332 23 22 326 315 322
5 8 9 7 3 19 23 24 22 20 21 24 27 29 31 30 25 24 38 46 56 61 52 51 71 325 90 93 99 60 13 321 300 313 337 341 336 354 42 20 350 71 84 43 38 129 85 239 87 235 145 101 94 86 304 101 43 39 99 88 72 84 63 37 71 46 53 88 38 67 34 330 285 271 73 244 276 293 307 334 1 352 358 348 323 302 302 306
7 10 9 3 3 15 17 15 13 17 24 26 26 26 30 30 30 30 30 39 53 53 63 66 46 68 44 68 69 70 291 286 329 340 338 345 345 34 28 19 16 76 62 19 55 59 69 118 102 90 110 75 78 27 50 65 126 112 95 87 90 62 72 360 85 17 2 66 8 101 334 316 331 62 274 286 258 336 352 343 345 15 318 300 298 305 287 254
9 9 6 2 2 358 354 354 9 22 25 26 25 28 30 36 39 41 43 34 26 25 49 63 67 67 58 47 78 87 281 9 346 344 344 341 27 35 12 356 349 78 91 53 60 53 101 108 127 138 52 139 90 40 65 103 117 101 113 85 65 70 67 25 49 12 10 20 65 95 130 287 308 37 223 249 344 356 2 321 331 343 307 302 300 287 272 278
10 8 7 3 356 350 353 360 9 21 23 24 31 38 43 44 45 42 45 40 37 33 56 51 63 106 76 60 61 74 282 305 330 340 352 358 41 22 25 32 51 58 76 86 46 1 83 130 82 64 136 216 79 106 63 151 75 117 81 89 38 36 54 13 50 327 23 347 77 103 250 312 344 170 249 247 329 7 11 330 331 333 314 310 312 297 282 250
9 9 4 352 345 336 351 360 14 25 24 30 43 52 48 47 46 46 48 35 19 43 44 39 53 39 73 54 32 244 313 316 341 351 9 8 21 62 60 40 56 57 74 88 70 51 80 97 94 82 62 88 128 68 168 88 93 86 32 89 43 5 32 352 301 334 20 258 51 234 351 276 273 252 267 314 350 358 8 338 323 319 317 310 305 275 290 290
9 5 359 353 353 356 5 7 17 26 31 43 54 51 48 50 52 48 47 53 25 44 52 47 58 62 80 142 258 227 263 262 342 24 355 346 48 40 40 30 47 57 38 87 79 57 79 82 84 96 105 79 104 107 87 25 21 82 262 56 59 46 2 318 35 319 153 349 27 88 162 293 281 287 276 329 353 50 335 309 304 315 312 289 281 280 271 277
6 1 360 1 2 1 5 12 16 21 35 47 55 53 47 42 56 60 46 40 14 310 19 35 61 68 59 44 269 293 44 96 34 344 343 14 359 35 11 3 34 39 64 58 80 45 34 80 70 54 68 340 79 74 36 44 26 39 48 345 337 88 285 308 343 7 95 1 23 81 19 240 272 267 284 315 7 47 321 302 298 303 293 280 277 277 274 265
3 0 1 0 2 0 360 9 7 6 9 37 52 55 52 46 44 51 43 45 18 42 44 51 358 84 100 60 7 10 41 38 348 316 321 40 20 80 292 290 304 40 44 37 47 65 29 61 70 92 66 11 53 82 74 40 352 14 97 74 6 27 308 351 57 24 12 243 8 65 259 325 3 314 303 333 17 40 335 303 295 292 283 279 273 272 282 300
2 360 357 359 357 357 5 349 3 347 348 344 2 57 61 52 52 65 63 43 7 6 73 49 11 107 66 247 324 33 322 306 296 353 340 35 37 345 17 22 15 342 351 47 34 50 7 54 284 40 43 92 238 80 73 35 14 358 35 111 223 71 333 53 310 40 6 56 274 16 253 244 259 293 302 326 43 17 330 298 294 283 286 280 287 288 282 285
0 359 355 352 352 342 0 350 336 337 338 341 26 329 57 50 52 42 1 12 4 78 85 102 98 48 44 16 47 328 34 299 354 310 275 305 52 18 55 35 319 12 37 9 4 44 339 47 22 128 31 19 23 21 102 134 173 133 71 79 32 11 153 268 35 317 9 14 52 340 105 288 298 307 304 278 352 48 280 269 287 293 294 295 293 285 282 283
358 355 352 350 346 340 352 341 335 327 322 216 15 132 30 19 32 58 29 342 37 357 27 343 13 94 155 324 296 302 307 228 283 16 338 6 334 64 47 92 62 51 1 53 333 50 348 70 42 43 13 350 356 3 83 152 125 141 151 147 132 99 350 30 252 300 46 333 4 23 298 302 305 311 305 318 23 350 280 298 294 285 280 281 280 278 277 272
356 353 351 349 344 340 348 354 344 330 213 85 15 23 19 21 15 4 346 40 62 80 130 286 69 77 40 18 353 286 257 16 81 343 0 344 359 354 35 54 24 62 54 55 321 31 67 74 54 0 297 304 296 285 311 69 119 111 87 91 88 137 292 272 292 264 356 345 263 287 286 270 281 269 268 279 329 328 311 297 290 287 288 286 281 270 270 272
354 349 347 347 342 342 355 5 27 42 103 102 84 61 241 152 81 52 320 79 168 23 86 56 78 89 99 265 310 360 43 309 89 15 7 259 96 58 338 22 15 48 14 277 109 310 65 64 11 337 292 287 283 302 174 74 44 98 102 94 55 84 97 220 282 346 316 54 283 277 314 287 265 276 265 290 322 279 260 271 278 280 282 275 272 278 267 262
350 347 343 342 339 345 358 25 53 74 87 88 72 117 129 201 58 155 123 64 5 12 37 78 270 43 331 161 281 158 131 42 19 357 348 30 334 91 328 72 58 74 324 0 15 25 48 63 326 317 285 290 30 57 69 87 83 35 99 130 86 337 252 280 249 331 324 158 267 351 345 285 275 263 269 240 235 239 212 199 235 257 290 291 282 270 281 301
349 342 343 341 339 344 10 35 64 79 40 56 87 106 96 127 329 258 96 124 82 324 50 20 33 22 6 289 341 108 61 43 298 348 344 15 10 60 40 52 55 64 27 18 120 97 60 354 331 313 81 72 18 23 49 70 58 60 22 40 224 261 27 288 291 9 342 62 313 319 310 285 297 281 262 258 212 255 251 231 246 212 244 263 265 266 281 287
345 344 338 343 341 340 360 77 46 42 29 94 84 103 188 20 356 52 63 95 125 337 54 242 119 109 41 25 331 33 68 353 74 336 345 50 66 213 71 78 76 53 43 51 82 84 116 286 191 61 54 136 89 36 39 45 38 24 87 101 97 334 165 181 291 321 298 322 60 317 302 313 341 348 324 325 322 316 305 332 287 258 232 258 286 284 227 251
344 343 343 338 345 336 214 62 39 50 166 47 44 247 323 66 56 86 96 16 25 36 184 57 136 60 329 281 10 114 304 94 84 231 292 52 360 38 89 135 87 19 167 283 85 77 49 336 154 40 32 43 71 42 37 54 51 337 326 130 215 152 258 317 308 20 16 334 21 28 3 323 302 290 247 290 345 329 322 349 299 301 298 303 294 274 288 255
343 345 343 343 338 328 262 55 343 147 71 61 187 244 317 141 70 81 93 75 56 294 16 12 170 2 182 347 12 120 63 54 278 302 334 44 199 127 107 30 63 149 225 63 84 111 126 349 76 107 86 68 71 94 311 78 144 74 284 140 149 156 131 347 345 46 353 337 321 47 101 273 332 315 297 324 334 300 315 307 279 299 297 310 273 272 276 280
345 345 346 345 349 337 80 195 173 131 76 247 196 307 346 49 290 60 49 2 47 310 26 261 73 329 81 291 319 105 61 291 322 356 27 4 33 336 92 327 30 46 103 161 41 5 13 354 32 42 57 58 51 41 344 112 86 302 321 126 113 117 359 259 91 109 211 286 297 41 85 200 315 294 285 292 318 299 311 298 293 289 292 290 287 274 278 286
345 344 348 355 13 59 188 128 110 72 179 247 340 30 32 107 104 36 76 62 338 356 15 324 42 331 72 317 30 89 147 298 54 338 69 304 162 11 81 95 106 118 339 74 111 244 78 343 23 28 60 61 73 204 276 142 116 224 218 181 202 174 180 130 94 123 119 25 294 352 351 63 261 263 308 320 327 316 287 272 276 281 280 278 284 282 285 272
344 350 345 2 39 61 67 100 111 121 206 261 20 270 82 119 91 108 118 109 257 75 195 76 251 31 337 358 35 32 19 15 101 300 325 300 33 160 67 47 127 109 57 136 144 198 345 126 224 120 96 75 222 247 210 141 54 288 146 107 94 58 65 65 99 94 338 55 287 281 343 173 284 274 337 312 221 269 256 255 261 259 260 270 280 285 278 284
346 355 356 330 42 18 10 42 46 204 209 4 43 131 62 71 34 34 9 47 7 292 38 274 55 299 18 51 357 5 42 341 83 308 26 82 326 27 67 152 109 68 55 38 65 144 191 306 182 67 77 176 158 270 158 199 195 99 85 331 344 34 8 10 59 81 57 13 259 229 313 131 293 272 225 164 221 200 227 301 274 280 282 265 251 251 263 275
351 6 9 51 81 183 77 34 294 9 15 338 234 36 82 40 106 99 90 216 50 297 5 31 342 13 32 52 10 345 67 357 351 23 351 11 359 39 29 97 36 60 61 35 58 343 22 356 43 332 66 58 116 71 13 59 281 123 69 232 4 289 358 24 341 32 82 283 257 268 58 50 178 290 285 238 274 212 161 173 208 246 262 257 262 254 251 250
354 22 30 55 135 52 100 177 145 35 37 3 75 61 71 239 11 84 162 327 140 299 83 291 39 78 36 355 74 350 7 343 12 30 47 28 39 34 354 111 346 76 353 6 61 2 25 22 268 327 198 91 158 83 319 18 12 57 50 28 53 279 19 286 17 328 202 205 112 30 65 13 240 227 219 261 251 251 219 191 192 210 251 263 264 263 264 263
3 9 51 47 66 54 46 136 64 157 148 64 72 52 60 91 77 274 307 324 191 1 298 145 285 23 270 57 6 331 291 68 327 60 125 10 103 33 308 80 265 164 154 233 69 33 329 267 24 305 23 7 115 123 336 8 344 55 72 118 62 20 33 284 274 221 296 302 248 334 283 253 252 282 235 239 249 221 225 230 232 218 233 252 263 279 284 281
31 24 63 18 72 79 139 76 122 203 90 43 69 30 43 60 232 81 113 257 181 340 46 44 356 3 43 86 316 345 41 309 39 332 43 46 49 42 331 343 66 16 77 90 134 175 336 353 340 15 28 2 66 113 182 165 122 138 168 109 180 139 209 296 260 315 271 255 282 291 41 235 46 230 182 223 251 285 264 267 260 255 252 259 277 283 279 279
75 59 88 6 41 43 48 128 49 145 80 64 51 84 107 221 215 171 204 235 269 309 153 278 44 65 0 32 327 326 146 344 46 46 18 68 2 84 5 327 338 82 199 77 270 72 78 200 275 233 257 343 38 294 97 88 65 216 169 95 62 334 142 297 208 184 313 338 335 252 206 196 191 304 285 321 315 294 307 291 308 285 277 299 298 277 272 270
332 311 65 28 26 324 12 332 128 88 88 59 75 43 78 179 115 147 108 151 125 135 193 34 79 60 353 4 342 63 291 104 337 78 359 54 190 71 286 223 341 21 54 117 194 132 13 24 259 323 32 58 328 201 350 74 295 228 85 100 169 133 98 93 74 95 128 57 254 202 311 289 292 355 331 346 7 287 337 304 319 296 308 316 285 288 288 283
14 337 40 335 7 338 329 354 9 81 60 86 91 83 198 283 218 174 307 158 169 139 64 116 329 87 199 318 275 337 307 40 340 82 339 157 17 206 331 300 155 27 143 136 2 190 153 241 321 105 279 341 291 191 121 9 103 72 38 188 108 121 126 123 305 333 61 96 265 36 258 310 22 297 326 4 345 291 296 282 285 294 293 305 283 285 284 290
75 67 137 41 312 321 329 347 40 49 78 80 63 136 298 96 227 178 208 16 123 41 96 97 215 65 256 121 339 335 309 81 320 52 148 282 132 150 124 253 239 126 329 299 130 263 95 49 296 312 214 283 356 359 345 338 248 169 155 159 72 327 1 336 90 352 348 324 295 310 280 249 189 255 356 17 327 304 278 290 325 296 302 281 289 295 299 299
67 91 28 316 320 359 318 3 65 59 66 63 176 96 258 319 216 158 236 216 246 146 90 220 133 318 135 93 215 301 317 99 43 78 75 292 71 163 147 174 15 163 6 186 65 226 28 139 293 262 109 316 352 58 278 291 352 75 1 16 354 99 134 35 149 173 122 273 15 293 21 275 204 223 187 230 233 231 260 303 260 253 257 266 269 280 293 306
58 28 325 311 322 359 340 65 58 48 59 102 185 115 197 101 187 270 27 58 16 72 212 124 155 112 16 203 139 141 330 90 116 197 106 292 100 326 246 9 176 314 60 343 128 282 52 110 246 284 280 341 230 344 200 152 152 334 36 342 13 56 221 118 38 114 207 193 183 264 328 287 268 212 174 216 214 213 191 213 248 256 263 261 260 272 292 294
27 99 263 342 333 323 45 46 45 33 88 240 80 143 22 181 179 345 353 9 115 310 176 159 157 117 192 113 264 270 71 71 57 115 162 321 130 314 43 113 205 327 317 44 50 360 72 20 220 309 27 219 215 14 187 149 156 151 148 206 173 107 90 34 286 21 71 84 239 95 276 279 277 164 217 207 239 227 246 223 254 269 272 277 285 286 270 292
88 37 294 332 327 50 79 52 24 80 94 90 89 150 104 106 75 340 3 339 66 121 9 106 40 117 131 74 153 154 117 70 17 88 277 145 90 106 335 79 237 232 90 143 73 245 129 153 90 268 199 215 254 136 278 182 98 157 154 220 127 106 103 100 328 279 38 204 105 155 283 274 248 220 231 244 272 254 246 226 261 272 275 281 286 284 290 256
47 165 270 345 335 68 67 70 319 46 60 231 289 12 358 39 111 272 68 339 24 82 19 59 153 75 259 158 167 85 178 90 172 9 169 320 237 214 295 48 282 15 98 352 345 290 112 51 10 286 311 309 328 330 147 41 131 32 16 46 105 173 178 172 174 177 138 85 212 358 231 253 284 237 243 261 263 267 261 228 252 274 279 289 288 296 302 310
151 281 338 293 58 99 79 135 102 40 65 319 77 83 331 154 111 38 63 325 115 8 122 150 35 15 140 112 101 110 261 88 274 96 106 162 73 152 5 0 295 328 85 182 132 242 40 316 109 332 358 337 345 353 3 325 77 164 206 209 121 88 76 151 103 28 327 213 173 123 253 280 273 332 299 291 329 310 283 260 219 264 289 290 292 294 294 292
113 309 260 307 5 54 107 173 130 144 188 134 120 86 36 26 65 123 164 147 13 156 115 14 176 153 54 105 93 107 10 83 196 341 106 106 170 3 320 31 297 133 322 260 280 307 98 226 83 49 44 346 316 325 293 318 253 233 114 90 243 132 138 119 211 34 220 278 124 178 250 258 266 308 339 330 335 310 290 275 253 224 263 287 296 297 301 303
46 124 309 351 16 42 65 39 93 129 136 152 79 240 109 85 23 324 130 55 202 102 44 136 4 94 100 73 55 38 50 352 64 208 115 203 277 334 261 329 81 153 223 210 46 75 139 48 120 152 155 204 203 208 250 100 46 248 254 174 203 191 127 93 100 101 209 195 193 235 211 291 303 298 307 294 291 274 293 301 298 296 275 254 256 273 283 289
159 71 353 337 343 50 79 25 63 68 158 178 108 177 133 124 201 2 170 15 223 139 68 49 182 126 236 85 144 93 265 320 6 92 293 157 261 245 296 106 310 326 335 175 20 83 70 350 273 165 232 241 207 228 222 175 238 238 187 244 192 171 179 148 162 217 168 78 291 251 225 210 266 286 296 302 307 305 282 274 290 297 292 289 290 293 296 299
66 233 91 212 123 312 53 9 75 94 59 75 104 53 150 127 182 142 349 27 147 297 114 339 72 328 174 165 147 112 232 36 35 184 75 288 82 336 48 331 95 312 345 341 343 126 142 168 247 122 270 248 246 253 196 218 208 215 203 189 181 193 164 191 225 198 150 182 238 207 156 225 275 284 285 286 280 274 282 285 282 278 291 301 315 314 311 306
96 142 125 279 125 270 102 218 92 108 77 88 112 85 164 159 185 212 160 124 24 331 193 177 248 212 185 200 121 125 174 93 306 335 179 161 193 133 171 350 242 356 70 32 11 169 100 270 195 171 271 288 304 1 273 197 258 264 232 227 212 177 204 209 227 199 193 237 251 281 296 283 276 274 279 279 284 280 281 284 296 295 279 297 302 298 298 299
218 129 223 12 88 123 270 62 85 60 67 7 109 231 157 178 167 210 304 127 140 268 152 176 236 132 147 126 109 112 218 147 171 130 196 120 85 197 220 194 158 359 41 142 343 323 109 272 134 144 345 296 312 328 73 136 182 258 248 237 222 216 223 227 249 247 255 285 271 275 282 284 277 261 254 266 285 308 311 290 268 270 288 288 289 291 296 292
147 17 146 115 56 327 38 16 68 94 99 334 82 211 113 193 203 175 139 355 162 174 180 207 159 112 66 98 87 228 242 183 151 326 185 147 332 208 141 261 129 145 109 82 20 319 18 240 50 78 358 304 314 48 281 318 240 242 269 234 220 191 227 205 207 207 168 227 226 67 280 259 270 322 274 280 296 291 265 277 293 287 276 268 272 285 286 288
78 69 87 104 88 299 174 57 12 88 341 232 140 189 173 221 192 148 86 154 88 17 194 142 171 105 81 127 217 219 217 170 151 66 120 87 114 89 70 109 116 152 169 145 270 138 163 126 115 45 3 258 263 127 303 316 318 320 278 223 201 207 196 335 271 220 215 148 161 218 235 218 229 173 343 293 280 285 283 259 276 290 267 228 256 272 276 275